Regional Weather Roundup
Issued by NWS

Home | Current Version | Previous Version | Text Only | Print | Product List | Glossary Off
Versions: 1 2 3 4 5 6 7 8 9 10 11 12 13 14 15 16 17 18 19 20 21 22 23 24 25 26 27 28 29 30 31 32 33 34 35 36 37 38 39 40 41 42 43 44 45 46 47 48 49 50

000
ASUS45 KPSR 211100
RWRAZ

PRELIMINARY ARIZONA REGIONAL HOURLY WEATHER ROUNDUP
NATIONAL WEATHER SERVICE PHOENIX AZ
400 AM MST THU AUG 21 2014

NOTE: FAIR INDICATES FEW OR NO CLOUDS BELOW 12,000 FEET WITH NO
SIGNIFICANT WEATHER AND/OR OBSTRUCTIONS TO VISIBILITY.

AZZ001>003-036-211200-
NORTHWEST ARIZONA

CITY           SKY/WX    TMP DP  RH WIND       PRES   REMARKS
KINGMAN        CLOUDY    68  56  65 E5        30.02S
$$

AZZ004>008-015-016-018-211200-
NORTH CENTRAL ARIZONA

CITY           SKY/WX    TMP DP  RH WIND       PRES   REMARKS
GRAND CANYON     N/A    N/A N/A N/A MISG        N/A
WILLIAMS       PTCLDY    50  46  87 S8        30.30S
PRESCOTT       PTCLDY    60  51  72 CALM      30.14R
FLAGSTAFF      PTCLDY    49  45  86 CALM      30.27S
PAYSON         MOCLDY    61  55  82 CALM      30.16S
PAGE           MOCLDY    66  49  54 CALM      30.08S
$$

AZZ009>014-017-211200-
NORTHEAST ARIZONA

CITY           SKY/WX    TMP DP  RH WIND       PRES   REMARKS
WINSLOW        NOT AVBL
SAINT JOHNS    MOCLDY    61  49  64 CALM      30.17S
WINDOW ROCK    CLOUDY    58  39  49 CALM      30.24
$$

AZZ023-211200-
GREATER PHOENIX AREA

CITY           SKY/WX    TMP DP  RH WIND       PRES   REMARKS
PHOENIX        CLOUDY    84  58  40 S5        29.87R
DEER VALLEY    CLOUDY    79  64  60 E3        29.89R
SCOTTSDALE     CLOUDY    80  62  54 S3        29.91R
MESA-GATEWAY   MOCLDY    79  59  50 SE6       29.92R
$$

AZZ027-028-211200-
SOUTHWEST MARICOPA COUNTY AND PINAL COUNTY

CITY           SKY/WX    TMP DP  RH WIND       PRES   REMARKS
CASA GRANDE    CLOUDY    79  55  44 CALM      29.91S
$$

AZZ503-504-507>509-211200-
SOUTHEAST ARIZONA

CITY           SKY/WX    TMP DP  RH WIND       PRES   REMARKS
TUCSON         MOCLDY    77  64  64 S7        30.00R
NOGALES        CLOUDY    67  63  87 CALM      30.07S
SAFFORD        CLEAR     67  61  81 SW5       30.00R
$$

AZZ020-021-025-026-031-211200-
SOUTHWEST ARIZONA

CITY           SKY/WX    TMP DP  RH WIND       PRES   REMARKS
YUMA           CLOUDY    87  63  44 SE6       29.81S
$$

CAZ031-033-041-043-047-048-061-211200-
SOUTHERN CALIFORNIA

CITY           SKY/WX    TMP DP  RH WIND       PRES   REMARKS
DOWNTOWN L.A.  CLEAR     66  61  84 CALM      29.92S
L.A. AIRPORT   CLEAR     67  60  78 W6        29.93S
SAN DIEGO      CLOUDY    71  62  73 NW5       29.92F
BURBANK        CLEAR     66  59  78 SE3       29.93R
ONTARIO        CLEAR     66  60  81 CALM      29.93F
RIVERSIDE      CLEAR     65  61  87 CALM      29.93F
PALM SPRINGS   CLEAR     79  57  46 N9        29.83F
EL CENTRO NAS  PTCLDY    77  54  44 SE7       29.78S
IMPERIAL       PTCLDY    82  52  35 S3        29.78S
BLYTHE         PTCLDY    81  72  74 SE7       29.81S
$$

NVZ020-UTZ003-211200-
SOUTHERN NEVADA-UTAH

CITY           SKY/WX    TMP DP  RH WIND       PRES   REMARKS
LAS VEGAS      NOT AVBL
SALT LAKE CITY CLOUDY    67  50  54 SE8       30.01R
$$

NMZ009-TXZ055-211200-
NEW MEXICO-WEST TEXAS

CITY           SKY/WX    TMP DP  RH WIND       PRES   REMARKS
ALBUQUERQUE    CLEAR     63  45  51 SE3       30.12R
EL PASO        PTCLDY    72  49  44 SE7       30.02R
$$


........................KEY........................
SKY/WX - SKY CONDITION/WEATHER
TMP    - TEMPERATURE IN FAHRENHEIT
DP     - DEW POINT IN FAHRENHEIT
RH     - RELATIVE HUMIDITY IN PERCENT
WIND   - DIRECTION AND SPEED IN MILES PER HOUR (MPH)
VRB    - VARIABLE WIND DIRECTION
PRES   - MEAN SEA LEVEL PRESSURE IN INCHES OF MERCURY
         F - FALLING PRESSURE   R - RISING PRESSURE
         S - STEADY PRESSURE
VSB    - VISIBILITY IN MILES
HX     - HEAT INDEX IN FAHRENHEIT
WCI    - WIND CHILL INDEX IN FAHRENHEIT
TC     - TEMPERATURE IN CELSIUS WHICH IS ALSO KNOWN AS
         TEMPERATURE IN CENTIGRADE
AFB    - AIR FORCE BASE
         LUKE AFB IS LUKE AIR FORCE BASE
         DAVIS-MONTHAN IS DAVIS-MONTHAN AIR FORCE BASE
NAS    - NAVAL AIR STATION
         EL CENTRO NAS IS EL CENTRO NAVAL AIR STATION
N/A    - NOT AVAILABLE


USA.gov is the U.S. government's official web portal to all federal, state and local government web resources and services.